| time (UTC) | temp C | wind direction | speed KPH | gust KPH | rain 1hr cm | rain 24hr cm | rain mn cm | humidity % | barometer mb |
| 20260508071552 | 19 | 360 | 19.3 | 0.0 | 0.00 | 0.00 | 0.00 | 59 | 1009.8 |
| 20260508071046 | 18 | 360 | 22.5 | 0.0 | 0.00 | 0.00 | 0.00 | 60 | 1009.8 |
| 20260508070550 | 19 | 326 | 22.5 | 0.0 | 0.00 | 0.00 | 0.00 | 61 | 1009.6 |
| 20260508070030 | 18 | 358 | 25.7 | 0.0 | 0.00 | 0.00 | 0.00 | 59 | 1009.6 |
| 20260508065605 | 18 | 354 | 29.0 | 0.0 | 0.00 | 0.00 | 0.00 | 61 | 1009.6 |
| 20260508065108 | 18 | 323 | 27.4 | 0.0 | 0.00 | 0.00 | 0.00 | 61 | 1009.7 |
| 20260508064552 | 19 | 321 | 27.4 | 0.0 | 0.00 | 0.00 | 0.00 | 61 | 1009.7 |
| 20260508064039 | 19 | 319 | 24.1 | 0.0 | 0.00 | 0.00 | 0.00 | 62 | 1009.7 |
| 20260508063544 | 19 | 358 | 24.1 | 0.0 | 0.00 | 0.00 | 0.00 | 62 | 1009.5 |
| 20260508063052 | 18 | 343 | 24.1 | 0.0 | 0.00 | 0.00 | 0.00 | 61 | 1009.5 |
| 20260508062539 | 19 | 311 | 24.1 | 0.0 | 0.00 | 0.00 | 0.00 | 61 | 1009.5 |
| 20260508062040 | 19 | 358 | 24.1 | 0.0 | 0.00 | 0.00 | 0.00 | 63 | 1009.7 |
| 20260508061548 | 19 | 312 | 20.9 | 0.0 | 0.00 | 0.00 | 0.00 | 62 | 1009.7 |
| 20260508061056 | 19 | 360 | 24.1 | 0.0 | 0.00 | 0.00 | 0.00 | 63 | 1009.7 |
| 20260508060539 | 19 | 329 | 24.1 | 0.0 | 0.00 | 0.00 | 0.00 | 67 | 1009.7 |
| 20260508060107 | 19 | 312 | 20.9 | 0.0 | 0.00 | 0.00 | 0.00 | 66 | 1009.7 |
| 20260508055535 | 19 | 293 | 24.1 | 0.0 | 0.00 | 0.00 | 0.00 | 63 | 1009.7 |
| 20260508055040 | 19 | 292 | 22.5 | 0.0 | 0.00 | 0.00 | 0.00 | 60 | 1009.8 |
| 20260508054548 | 19 | 322 | 20.9 | 0.0 | 0.00 | 0.00 | 0.00 | 60 | 1009.8 |
| 20260508054051 | 20 | 319 | 20.9 | 0.0 | 0.00 | 0.00 | 0.00 | 60 | 1009.8 |
| 20260508053536 | 19 | 323 | 20.9 | 0.0 | 0.00 | 0.00 | 0.00 | 61 | 1009.9 |
| 20260508053043 | 19 | 360 | 22.5 | 0.0 | 0.00 | 0.00 | 0.00 | 62 | 1009.9 |
| 20260508052532 | 19 | 344 | 25.7 | 0.0 | 0.00 | 0.00 | 0.00 | 63 | 1009.9 |
| 20260508052034 | 19 | 300 | 24.1 | 0.0 | 0.00 | 0.00 | 0.00 | 61 | 1010.0 |
| 20260508051540 | 19 | 347 | 22.5 | 0.0 | 0.00 | 0.00 | 0.00 | 63 | 1010.0 |
| 20260508051048 | 19 | 337 | 22.5 | 0.0 | 0.00 | 0.00 | 0.00 | 61 | 1010.0 |
| 20260508050554 | 19 | 316 | 22.5 | 0.0 | 0.00 | 0.00 | 0.00 | 56 | 1010.3 |
| 20260508050034 | 20 | 344 | 20.9 | 0.0 | 0.00 | 0.00 | 0.00 | 53 | 1010.3 |
| 20260508045540 | 20 | 335 | 20.9 | 0.0 | 0.00 | 0.00 | 0.00 | 55 | 1010.3 |
| 20260508045041 | 20 | 342 | 22.5 | 0.0 | 0.00 | 0.00 | 0.00 | 58 | 1010.3 |
| 20260508044529 | 19 | 311 | 24.1 | 0.0 | 0.00 | 0.00 | 0.00 | 58 | 1010.3 |
| 20260508044036 | 19 | 358 | 25.7 | 0.0 | 0.00 | 0.00 | 0.00 | 59 | 1010.3 |
| 20260508043539 | 19 | 338 | 25.7 | 0.0 | 0.00 | 0.00 | 0.00 | 60 | 1010.3 |
| 20260508043027 | 20 | 326 | 22.5 | 0.0 | 0.00 | 0.00 | 0.00 | 59 | 1010.3 |
| 20260508042529 | 20 | 327 | 24.1 | 0.0 | 0.00 | 0.00 | 0.00 | 63 | 1010.3 |
| 20260508042032 | 19 | 358 | 25.7 | 0.0 | 0.00 | 0.00 | 0.00 | 66 | 1010.2 |
| 20260508041601 | 20 | 316 | 27.4 | 0.0 | 0.00 | 0.00 | 0.00 | 68 | 1010.2 |
| 20260508041046 | 20 | 255 | 24.1 | 0.0 | 0.00 | 0.00 | 0.00 | 65 | 1010.2 |
| 20260508040530 | 20 | 307 | 19.3 | 0.0 | 0.00 | 0.00 | 0.00 | 69 | 1010.2 |
| 20260508040036 | 20 | 337 | 20.9 | 0.0 | 0.00 | 0.00 | 0.00 | 67 | 1010.2 |
| 20260508035542 | 20 | 282 | 22.5 | 0.0 | 0.00 | 0.00 | 0.00 | 69 | 1010.2 |
| 20260508035048 | 20 | 356 | 22.5 | 0.0 | 0.00 | 0.00 | 0.00 | 69 | 1010.1 |
| 20260508034529 | 20 | 307 | 24.1 | 0.0 | 0.00 | 0.00 | 0.00 | 73 | 1010.1 |
| 20260508034036 | 20 | 356 | 24.1 | 0.0 | 0.00 | 0.00 | 0.00 | 72 | 1010.1 |
| 20260508033539 | 20 | 325 | 25.7 | 0.0 | 0.00 | 0.00 | 0.00 | 72 | 1010.1 |
| 20260508033045 | 20 | 318 | 25.7 | 0.0 | 0.00 | 0.00 | 0.00 | 72 | 1010.1 |
| 20260508032532 | 20 | 309 | 24.1 | 0.0 | 0.00 | 0.00 | 0.00 | 71 | 1010.1 |
| 20260508032035 | 20 | 358 | 24.1 | 0.0 | 0.00 | 0.00 | 0.00 | 72 | 1009.9 |
| 20260508031602 | 20 | 295 | 24.1 | 0.0 | 0.00 | 0.00 | 0.00 | 71 | 1009.9 |
| 20260508031043 | 19 | 358 | 24.1 | 0.0 | 0.00 | 0.00 | 0.00 | 72 | 1009.9 |
| 20260508030549 | 19 | 349 | 25.7 | 0.0 | 0.00 | 0.00 | 0.00 | 73 | 1010.1 |
| 20260508030034 | 20 | 357 | 24.1 | 0.0 | 0.00 | 0.00 | 0.00 | 75 | 1010.1 |
| 20260508025539 | 20 | 350 | 22.5 | 0.0 | 0.00 | 0.00 | 0.00 | 75 | 1010.1 |
| 20260508025052 | 20 | 356 | 24.1 | 0.0 | 0.00 | 0.00 | 0.00 | 75 | 1010.2 |
| 20260508024530 | 20 | 330 | 22.5 | 0.0 | 0.00 | 0.00 | 0.00 | 73 | 1010.2 |
| 20260508024034 | 20 | 343 | 17.7 | 0.0 | 0.00 | 0.00 | 0.00 | 75 | 1010.2 |
| 20260508023540 | 20 | 309 | 17.7 | 0.0 | 0.00 | 0.00 | 0.00 | 77 | 1010.1 |
| 20260508023107 | 20 | 356 | 22.5 | 0.0 | 0.00 | 0.00 | 0.00 | 77 | 1010.1 |
| 20260508022553 | 20 | 360 | 20.9 | 0.0 | 0.00 | 0.00 | 0.00 | 77 | 1010.1 |
| 20260508022037 | 20 | 329 | 19.3 | 0.0 | 0.00 | 0.00 | 0.00 | 77 | 1009.9 |
| 20260508021544 | 20 | 314 | 19.3 | 0.0 | 0.00 | 0.00 | 0.00 | 77 | 1009.9 |
| 20260508021052 | 20 | 316 | 20.9 | 0.0 | 0.00 | 0.00 | 0.00 | 77 | 1009.9 |
| 20260508020532 | 20 | 299 | 24.1 | 0.0 | 0.00 | 0.00 | 0.00 | 78 | 1010.1 |
| 20260508020101 | 20 | 288 | 24.1 | 0.0 | 0.00 | 0.00 | 0.00 | 77 | 1010.1 |
| 20260508015542 | 20 | 321 | 20.9 | 0.0 | 0.00 | 0.00 | 0.00 | 78 | 1010.1 |
| 20260508015043 | 20 | 333 | 17.7 | 0.0 | 0.00 | 0.00 | 0.00 | 78 | 1010.1 |
| 20260508014528 | 20 | 305 | 16.1 | 0.0 | 0.00 | 0.00 | 0.00 | 79 | 1010.1 |
| 20260508014056 | 20 | 338 | 14.5 | 0.0 | 0.00 | 0.00 | 0.00 | 80 | 1010.1 |
| 20260508013536 | 20 | 316 | 16.1 | 0.0 | 0.00 | 0.00 | 0.00 | 80 | 1010.2 |
| 20260508013042 | 20 | 338 | 17.7 | 0.0 | 0.00 | 0.00 | 0.00 | 81 | 1010.2 |
| 20260508012545 | 19 | 326 | 17.7 | 0.0 | 0.00 | 0.00 | 0.00 | 82 | 1010.2 |
| 20260508012044 | 19 | 358 | 16.1 | 0.0 | 0.00 | 0.00 | 0.00 | 83 | 1010.1 |
| 20260508011553 | 19 | 303 | 19.3 | 0.0 | 0.00 | 0.00 | 0.00 | 83 | 1010.1 |
| 20260508011039 | 19 | 315 | 17.7 | 0.0 | 0.00 | 0.00 | 0.00 | 84 | 1010.1 |
| 20260508010543 | 19 | 313 | 16.1 | 0.0 | 0.00 | 0.00 | 0.00 | 85 | 1009.8 |
| 20260508010030 | 19 | 328 | 17.7 | 0.0 | 0.00 | 0.00 | 0.00 | 85 | 1009.8 |
| 20260508005559 | 19 | 323 | 17.7 | 0.0 | 0.00 | 0.00 | 0.00 | 84 | 1009.8 |
| 20260508005041 | 20 | 1 | 19.3 | 0.0 | 0.00 | 0.00 | 0.00 | 84 | 1009.8 |
| 20260508004529 | 20 | 332 | 17.7 | 0.0 | 0.00 | 0.00 | 0.00 | 84 | 1009.8 |
| 20260508004032 | 20 | 358 | 17.7 | 0.0 | 0.00 | 0.00 | 0.00 | 84 | 1009.8 |
| 20260508003558 | 20 | 329 | 19.3 | 0.0 | 0.00 | 0.00 | 0.00 | 85 | 1009.9 |
| 20260508003045 | 20 | 306 | 16.1 | 0.0 | 0.00 | 0.00 | 0.00 | 84 | 1009.9 |
| 20260508002533 | 20 | 335 | 14.5 | 0.0 | 0.00 | 0.00 | 0.00 | 85 | 1009.9 |
| 20260508002035 | 20 | 334 | 14.5 | 0.0 | 0.00 | 0.00 | 0.00 | 86 | 1009.7 |
| 20260508001543 | 20 | 342 | 17.7 | 0.0 | 0.00 | 0.00 | 0.00 | 87 | 1009.7 |
| 20260508001030 | 20 | 360 | 17.7 | 0.0 | 0.00 | 0.00 | 0.00 | 88 | 1009.7 |
| 20260508000531 | 20 | 358 | 19.3 | 0.0 | 0.00 | 0.00 | 0.00 | 87 | 1009.6 |
| 20260508000039 | 20 | 341 | 19.3 | 0.0 | 0.00 | 0.00 | 0.00 | 86 | 1009.6 |
| 20260507235545 | 20 | 345 | 19.3 | 0.0 | 0.00 | 0.00 | 0.00 | 86 | 1009.6 |
| 20260507235030 | 20 | 326 | 20.9 | 0.0 | 0.00 | 0.00 | 0.00 | 84 | 1009.4 |
| 20260507234557 | 20 | 314 | 20.9 | 0.0 | 0.00 | 0.00 | 0.00 | 83 | 1009.4 |
| 20260507234103 | 20 | 318 | 17.7 | 0.0 | 0.00 | 0.00 | 0.00 | 83 | 1009.4 |
| 20260507233605 | 20 | 290 | 16.1 | 0.0 | 0.00 | 0.00 | 0.00 | 85 | 1009.0 |
| 20260507233028 | 20 | 302 | 16.1 | 0.0 | 0.00 | 0.00 | 0.00 | 86 | 1009.0 |
| 20260507232618 | 21 | 358 | 14.5 | 0.0 | 0.00 | 0.00 | 0.00 | 86 | 1009.0 |
| 20260507232030 | 21 | 326 | 12.9 | 0.0 | 0.00 | 0.00 | 0.00 | 88 | 1009.1 |
| 20260507231607 | 21 | 316 | 9.7 | 0.0 | 0.00 | 0.00 | 0.00 | 89 | 1009.1 |
| 20260507231051 | 21 | 322 | 8.0 | 0.0 | 0.00 | 0.00 | 0.00 | 89 | 1009.1 |
| 20260507230555 | 21 | 267 | 8.0 | 0.0 | 0.00 | 0.00 | 0.00 | 90 | 1009.3 |
| 20260507230101 | 21 | 289 | 11.3 | 0.0 | 0.00 | 0.00 | 0.00 | 91 | 1009.3 |
| 20260507225545 | 21 | 279 | 12.9 | 0.0 | 0.00 | 0.00 | 0.00 | 91 | 1009.3 |
| 20260507225045 | 21 | 262 | 12.9 | 0.0 | 0.00 | 0.00 | 0.00 | 91 | 1009.3 |
| 20260507224531 | 21 | 300 | 12.9 | 0.0 | 0.00 | 0.00 | 0.00 | 91 | 1009.3 |
| 20260507224034 | 21 | 293 | 11.3 | 0.0 | 0.00 | 0.00 | 0.00 | 92 | 1009.3 |
| 20260507223539 | 21 | 352 | 11.3 | 0.0 | 0.00 | 0.00 | 0.00 | 92 | 1009.2 |
| 20260507223045 | 20 | 297 | 11.3 | 0.0 | 0.00 | 0.00 | 0.00 | 92 | 1009.2 |
| 20260507222530 | 20 | 324 | 9.7 | 0.0 | 0.00 | 0.00 | 0.00 | 93 | 1009.2 |
| 20260507222034 | 20 | 287 | 9.7 | 0.0 | 0.00 | 0.00 | 0.00 | 93 | 1009.0 |
| 20260507221533 | 20 | 326 | 11.3 | 0.0 | 0.00 | 0.00 | 0.00 | 94 | 1009.0 |
| 20260507221034 | 20 | 263 | 9.7 | 0.0 | 0.00 | 0.00 | 0.00 | 95 | 1009.0 |
| 20260507220535 | 20 | 324 | 8.0 | 0.0 | 0.00 | 0.00 | 0.00 | 95 | 1008.7 |
| 20260507220040 | 20 | 314 | 8.0 | 0.0 | 0.00 | 0.00 | 0.00 | 96 | 1008.7 |
| 20260507215547 | 20 | 329 | 9.7 | 0.0 | 0.00 | 0.00 | 0.00 | 96 | 1008.7 |
| 20260507215027 | 20 | 266 | 8.0 | 0.0 | 0.00 | 0.00 | 0.00 | 98 | 1008.7 |
| 20260507214530 | 20 | 318 | 6.4 | 0.0 | 0.00 | 0.00 | 0.00 | 96 | 1008.7 |
| 20260507214052 | 20 | 302 | 8.0 | 0.0 | 0.00 | 0.00 | 0.00 | 97 | 1008.7 |
| 20260507213532 | 20 | 297 | 9.7 | 0.0 | 0.00 | 0.00 | 0.00 | 97 | 1008.8 |
| 20260507213046 | 20 | 316 | 4.8 | 0.0 | 0.00 | 0.00 | 0.00 | 97 | 1008.8 |
| 20260507212550 | 19 | 323 | 1.6 | 0.0 | 0.00 | 0.00 | 0.00 | 98 | 1008.8 |
| 20260507212113 | 18 | 286 | 0.0 | 0.0 | 0.00 | 0.00 | 0.00 | 97 | 1008.6 |
| 20260507211537 | 18 | 286 | 0.0 | 0.0 | 0.00 | 0.00 | 0.00 | 97 | 1008.6 |
| 20260507211041 | 18 | 286 | 0.0 | 0.0 | 0.00 | 0.00 | 0.00 | 96 | 1008.6 |
| 20260507210603 | 18 | 286 | 0.0 | 0.0 | 0.00 | 0.00 | 0.00 | 96 | 1008.3 |
| 20260507210051 | 18 | 169 | 0.0 | 0.0 | 0.00 | 0.00 | 0.00 | 96 | 1008.3 |
| 20260507205537 | 18 | 169 | 0.0 | 0.0 | 0.00 | 0.00 | 0.00 | 96 | 1008.3 |
| 20260507205101 | 18 | 169 | 0.0 | 0.0 | 0.00 | 0.00 | 0.00 | 96 | 1008.1 |
| 20260507204544 | 18 | 169 | 0.0 | 0.0 | 0.00 | 0.00 | 0.00 | 96 | 1008.1 |
| 20260507204031 | 18 | 169 | 0.0 | 0.0 | 0.00 | 0.00 | 0.00 | 96 | 1008.1 |
| 20260507203536 | 18 | 169 | 0.0 | 0.0 | 0.00 | 0.00 | 0.00 | 96 | 1008.0 |
| 20260507203043 | 18 | 169 | 0.0 | 0.0 | 0.00 | 0.00 | 0.00 | 96 | 1008.0 |
| 20260507202546 | 18 | 169 | 0.0 | 0.0 | 0.00 | 0.00 | 0.00 | 96 | 1008.0 |
| 20260507202030 | 18 | 169 | 0.0 | 0.0 | 0.00 | 0.00 | 0.00 | 96 | 1007.9 |
| 20260507201558 | 18 | 169 | 0.0 | 0.0 | 0.00 | 0.00 | 0.00 | 96 | 1007.9 |
| 20260507201044 | 18 | 169 | 0.0 | 0.0 | 0.00 | 0.00 | 0.00 | 96 | 1007.9 |
| 20260507200527 | 18 | 169 | 1.6 | 0.0 | 0.00 | 0.00 | 0.00 | 96 | 1007.9 |
| 20260507200055 | 18 | 169 | 1.6 | 0.0 | 0.00 | 0.00 | 0.00 | 96 | 1007.9 |
| 20260507195541 | 18 | 182 | 0.0 | 0.0 | 0.00 | 0.00 | 0.00 | 96 | 1007.9 |
| 20260507195041 | 18 | 183 | 0.0 | 0.0 | 0.00 | 0.00 | 0.00 | 96 | 1007.9 |
| 20260507194527 | 18 | 183 | 0.0 | 0.0 | 0.00 | 0.00 | 0.00 | 96 | 1007.9 |
| 20260507194035 | 18 | 183 | 0.0 | 0.0 | 0.00 | 0.00 | 0.00 | 96 | 1007.9 |
| 20260507193539 | 18 | 183 | 0.0 | 0.0 | 0.00 | 0.00 | 0.00 | 96 | 1008.1 |
| 20260507193026 | 18 | 183 | 0.0 | 0.0 | 0.00 | 0.00 | 0.00 | 96 | 1008.1 |
| 20260507192535 | 18 | 183 | 0.0 | 0.0 | 0.00 | 0.00 | 0.00 | 96 | 1008.1 |
| 20260507192059 | 18 | 183 | 0.0 | 0.0 | 0.00 | 0.00 | 0.00 | 96 | 1008.1 |
| 20260507191526 | 18 | 183 | 0.0 | 0.0 | 0.00 | 0.00 | 0.00 | 96 | 1008.1 |
| 20260507191029 | 18 | 183 | 0.0 | 0.0 | 0.00 | 0.00 | 0.00 | 96 | 1008.1 |
| 20260507190554 | 18 | 183 | 0.0 | 0.0 | 0.00 | 0.00 | 0.00 | 96 | 1008.1 |
| 20260507190039 | 18 | 183 | 0.0 | 0.0 | 0.00 | 0.00 | 0.00 | 96 | 1008.1 |
| 20260507185546 | 18 | 183 | 0.0 | 0.0 | 0.00 | 0.00 | 0.00 | 96 | 1008.1 |
| 20260507185030 | 18 | 183 | 0.0 | 0.0 | 0.00 | 0.00 | 0.00 | 96 | 1008.2 |
| 20260507184539 | 18 | 183 | 0.0 | 0.0 | 0.00 | 0.00 | 0.00 | 96 | 1008.2 |
| 20260507184046 | 18 | 183 | 1.6 | 0.0 | 0.00 | 0.00 | 0.00 | 96 | 1008.2 |
| 20260507183529 | 18 | 183 | 1.6 | 0.0 | 0.00 | 0.00 | 0.00 | 96 | 1008.3 |
| 20260507183034 | 18 | 134 | 0.0 | 0.0 | 0.00 | 0.00 | 0.00 | 96 | 1008.3 |
| 20260507182541 | 18 | 218 | 0.0 | 0.0 | 0.00 | 0.00 | 0.00 | 96 | 1008.3 |
| 20260507182026 | 18 | 218 | 0.0 | 0.0 | 0.00 | 0.00 | 0.00 | 96 | 1008.2 |
| 20260507181534 | 18 | 218 | 0.0 | 0.0 | 0.00 | 0.00 | 0.00 | 96 | 1008.2 |
| 20260507181042 | 18 | 218 | 0.0 | 0.0 | 0.00 | 0.00 | 0.00 | 96 | 1008.2 |
| 20260507180547 | 18 | 218 | 0.0 | 0.0 | 0.00 | 0.00 | 0.00 | 96 | 1008.3 |
| 20260507180034 | 18 | 218 | 0.0 | 0.0 | 0.00 | 0.00 | 0.00 | 96 | 1008.3 |
| 20260507175537 | 18 | 218 | 0.0 | 0.0 | 0.00 | 0.00 | 0.00 | 96 | 1008.3 |
| 20260507175040 | 18 | 218 | 0.0 | 0.0 | 0.00 | 0.00 | 0.00 | 96 | 1008.3 |
| 20260507174549 | 18 | 218 | 0.0 | 0.0 | 0.00 | 0.00 | 0.00 | 96 | 1008.3 |
| 20260507174035 | 18 | 218 | 0.0 | 0.0 | 0.00 | 0.00 | 0.00 | 96 | 1008.3 |
| 20260507173539 | 18 | 218 | 0.0 | 0.0 | 0.00 | 0.00 | 0.00 | 96 | 1008.6 |
| 20260507173054 | 18 | 218 | 0.0 | 0.0 | 0.00 | 0.00 | 0.00 | 96 | 1008.6 |
| 20260507172531 | 18 | 222 | 0.0 | 0.0 | 0.00 | 0.00 | 0.00 | 96 | 1008.6 |
| 20260507172035 | 18 | 222 | 0.0 | 0.0 | 0.00 | 0.00 | 0.00 | 96 | 1008.7 |
| 20260507171539 | 18 | 222 | 0.0 | 0.0 | 0.00 | 0.00 | 0.00 | 96 | 1008.7 |
| 20260507171054 | 18 | 222 | 1.6 | 0.0 | 0.00 | 0.00 | 0.00 | 96 | 1008.7 |
| 20260507170528 | 18 | 222 | 0.0 | 0.0 | 0.00 | 0.00 | 0.00 | 96 | 1008.7 |
| 20260507170045 | 18 | 222 | 0.0 | 0.0 | 0.00 | 0.00 | 0.00 | 96 | 1008.7 |
| 20260507165550 | 18 | 222 | 0.0 | 0.0 | 0.00 | 0.00 | 0.00 | 96 | 1008.7 |
| 20260507165052 | 18 | 222 | 0.0 | 0.0 | 0.00 | 0.00 | 0.00 | 96 | 1008.8 |
| 20260507164540 | 18 | 222 | 0.0 | 0.0 | 0.00 | 0.00 | 0.00 | 96 | 1008.8 |
| 20260507164043 | 18 | 222 | 0.0 | 0.0 | 0.00 | 0.00 | 0.00 | 96 | 1008.8 |
| 20260507163547 | 18 | 222 | 0.0 | 0.0 | 0.00 | 0.00 | 0.00 | 96 | 1009.2 |
| 20260507163027 | 18 | 222 | 0.0 | 0.0 | 0.00 | 0.00 | 0.00 | 96 | 1009.2 |
| 20260507162604 | 18 | 222 | 0.0 | 0.0 | 0.00 | 0.00 | 0.00 | 96 | 1009.2 |
| 20260507162046 | 18 | 222 | 0.0 | 0.0 | 0.00 | 0.00 | 0.00 | 96 | 1009.2 |
| 20260507161556 | 18 | 222 | 0.0 | 0.0 | 0.00 | 0.00 | 0.00 | 96 | 1009.2 |
| 20260507161039 | 18 | 222 | 1.6 | 0.0 | 0.00 | 0.00 | 0.00 | 96 | 1009.2 |
| 20260507160544 | 18 | 222 | 3.2 | 0.0 | 0.00 | 0.00 | 0.00 | 96 | 1009.2 |
| 20260507160047 | 18 | 222 | 1.6 | 0.0 | 0.00 | 0.00 | 0.00 | 96 | 1009.2 |
| 20260507155531 | 18 | 181 | 0.0 | 0.0 | 0.00 | 0.00 | 0.00 | 96 | 1009.2 |
| 20260507155035 | 18 | 181 | 0.0 | 0.0 | 0.00 | 0.00 | 0.00 | 96 | 1009.5 |
| 20260507154543 | 18 | 181 | 0.0 | 0.0 | 0.00 | 0.00 | 0.00 | 96 | 1009.5 |
| 20260507154030 | 18 | 181 | 0.0 | 0.0 | 0.00 | 0.00 | 0.00 | 96 | 1009.5 |
| 20260507153535 | 18 | 181 | 1.6 | 0.0 | 0.00 | 0.00 | 0.00 | 96 | 1009.5 |
| 20260507153042 | 18 | 181 | 1.6 | 0.0 | 0.00 | 0.00 | 0.00 | 96 | 1009.5 |
| 20260507152605 | 18 | 160 | 0.0 | 0.0 | 0.00 | 0.00 | 0.00 | 95 | 1009.5 |
| 20260507152027 | 18 | 160 | 0.0 | 0.0 | 0.00 | 0.00 | 0.00 | 96 | 1009.6 |
| 20260507151555 | 18 | 160 | 0.0 | 0.0 | 0.00 | 0.00 | 0.00 | 95 | 1009.6 |
| 20260507151040 | 18 | 160 | 0.0 | 0.0 | 0.00 | 0.00 | 0.00 | 95 | 1009.6 |
| 20260507150543 | 18 | 160 | 0.0 | 0.0 | 0.00 | 0.00 | 0.00 | 95 | 1009.6 |
| 20260507150124 | 18 | 160 | 0.0 | 0.0 | 0.00 | 0.00 | 0.00 | 95 | 1009.6 |
| 20260507145533 | 18 | 160 | 0.0 | 0.0 | 0.00 | 0.00 | 0.00 | 95 | 1009.6 |
| 20260507145040 | 18 | 160 | 1.6 | 0.0 | 0.00 | 0.00 | 0.00 | 95 | 1009.6 |
| 20260507144543 | 18 | 160 | 1.6 | 0.0 | 0.00 | 0.00 | 0.00 | 95 | 1009.6 |
| 20260507144031 | 18 | 160 | 0.0 | 0.0 | 0.00 | 0.00 | 0.00 | 95 | 1009.6 |
| 20260507143536 | 18 | 160 | 1.6 | 0.0 | 0.00 | 0.00 | 0.00 | 95 | 1009.4 |
| 20260507143044 | 18 | 160 | 1.6 | 0.0 | 0.00 | 0.00 | 0.00 | 95 | 1009.4 |
| 20260507142532 | 18 | 160 | 1.6 | 0.0 | 0.00 | 0.00 | 0.00 | 94 | 1009.4 |
| 20260507142058 | 18 | 160 | 0.0 | 0.0 | 0.00 | 0.00 | 0.00 | 94 | 1009.6 |
| 20260507141545 | 18 | 160 | 0.0 | 0.0 | 0.00 | 0.00 | 0.00 | 94 | 1009.6 |
| 20260507141033 | 18 | 160 | 0.0 | 0.0 | 0.00 | 0.00 | 0.00 | 94 | 1009.6 |
| 20260507140534 | 18 | 160 | 0.0 | 0.0 | 0.00 | 0.00 | 0.00 | 94 | 1009.4 |
| 20260507140042 | 18 | 160 | 0.0 | 0.0 | 0.00 | 0.00 | 0.00 | 94 | 1009.4 |
| 20260507135530 | 19 | 160 | 0.0 | 0.0 | 0.00 | 0.00 | 0.00 | 94 | 1009.4 |
| 20260507135035 | 19 | 160 | 0.0 | 0.0 | 0.00 | 0.00 | 0.00 | 94 | 1009.5 |
| 20260507134542 | 18 | 160 | 0.0 | 0.0 | 0.00 | 0.00 | 0.00 | 94 | 1009.5 |
| 20260507134031 | 18 | 160 | 0.0 | 0.0 | 0.00 | 0.00 | 0.00 | 93 | 1009.5 |
| 20260507133534 | 18 | 160 | 0.0 | 0.0 | 0.00 | 0.00 | 0.00 | 93 | 1009.7 |
| 20260507133038 | 19 | 160 | 0.0 | 0.0 | 0.00 | 0.00 | 0.00 | 93 | 1009.7 |
| 20260507132546 | 19 | 160 | 0.0 | 0.0 | 0.00 | 0.00 | 0.00 | 93 | 1009.7 |
| 20260507132031 | 19 | 160 | 0.0 | 0.0 | 0.00 | 0.00 | 0.00 | 93 | 1009.8 |
| 20260507131538 | 19 | 160 | 0.0 | 0.0 | 0.00 | 0.00 | 0.00 | 93 | 1009.8 |
| 20260507131046 | 19 | 149 | 1.6 | 0.0 | 0.00 | 0.00 | 0.00 | 93 | 1009.8 |
| 20260507130530 | 19 | 146 | 1.6 | 0.0 | 0.00 | 0.00 | 0.00 | 93 | 1009.8 |
| 20260507130038 | 19 | 146 | 1.6 | 0.0 | 0.00 | 0.00 | 0.00 | 93 | 1009.8 |
| 20260507125555 | 19 | 255 | 0.0 | 0.0 | 0.00 | 0.00 | 0.00 | 93 | 1009.8 |
| 20260507125026 | 19 | 255 | 0.0 | 0.0 | 0.00 | 0.00 | 0.00 | 92 | 1009.9 |
| 20260507124534 | 19 | 255 | 0.0 | 0.0 | 0.00 | 0.00 | 0.00 | 92 | 1009.9 |
| 20260507124103 | 19 | 255 | 0.0 | 0.0 | 0.00 | 0.00 | 0.00 | 92 | 1009.9 |
| 20260507123527 | 19 | 255 | 0.0 | 0.0 | 0.00 | 0.00 | 0.00 | 92 | 1009.8 |
| 20260507123034 | 19 | 255 | 0.0 | 0.0 | 0.00 | 0.00 | 0.00 | 91 | 1009.8 |
| 20260507122551 | 19 | 255 | 0.0 | 0.0 | 0.00 | 0.00 | 0.00 | 91 | 1009.8 |
| 20260507122026 | 19 | 255 | 0.0 | 0.0 | 0.00 | 0.00 | 0.00 | 91 | 1009.6 |
| 20260507121534 | 19 | 255 | 0.0 | 0.0 | 0.00 | 0.00 | 0.00 | 91 | 1009.6 |
| 20260507121037 | 19 | 255 | 0.0 | 0.0 | 0.00 | 0.00 | 0.00 | 91 | 1009.6 |
| 20260507120549 | 19 | 255 | 0.0 | 0.0 | 0.00 | 0.00 | 0.00 | 91 | 1009.5 |
| 20260507120050 | 19 | 255 | 0.0 | 0.0 | 0.00 | 0.00 | 0.00 | 91 | 1009.5 |
| 20260507115536 | 19 | 255 | 0.0 | 0.0 | 0.00 | 0.00 | 0.00 | 91 | 1009.5 |
| 20260507115047 | 19 | 255 | 0.0 | 0.0 | 0.00 | 0.00 | 0.00 | 91 | 1009.3 |
| 20260507114527 | 20 | 255 | 1.6 | 0.0 | 0.00 | 0.00 | 0.00 | 90 | 1009.3 |
| 20260507114043 | 20 | 255 | 1.6 | 0.0 | 0.00 | 0.00 | 0.00 | 90 | 1009.3 |
| 20260507113542 | 20 | 116 | 0.0 | 0.0 | 0.00 | 0.00 | 0.00 | 90 | 1009.2 |
| 20260507113050 | 20 | 116 | 0.0 | 0.0 | 0.00 | 0.00 | 0.00 | 89 | 1009.2 |
| 20260507112530 | 20 | 116 | 0.0 | 0.0 | 0.00 | 0.00 | 0.00 | 89 | 1009.2 |
| 20260507112042 | 20 | 116 | 0.0 | 0.0 | 0.00 | 0.00 | 0.00 | 88 | 1008.9 |
| 20260507111549 | 20 | 116 | 1.6 | 0.0 | 0.00 | 0.00 | 0.00 | 88 | 1008.9 |
| 20260507111039 | 20 | 103 | 1.6 | 0.0 | 0.00 | 0.00 | 0.00 | 88 | 1008.9 |
| 20260507110541 | 20 | 103 | 0.0 | 0.0 | 0.00 | 0.00 | 0.00 | 88 | 1009.0 |
| 20260507110048 | 20 | 92 | 0.0 | 0.0 | 0.00 | 0.00 | 0.00 | 88 | 1009.0 |
| 20260507105552 | 20 | 92 | 0.0 | 0.0 | 0.00 | 0.00 | 0.00 | 88 | 1009.0 |
| 20260507105037 | 21 | 92 | 0.0 | 0.0 | 0.00 | 0.00 | 0.00 | 88 | 1008.8 |
| 20260507104545 | 21 | 92 | 0.0 | 0.0 | 0.00 | 0.00 | 0.00 | 87 | 1008.8 |
| 20260507104035 | 21 | 92 | 0.0 | 0.0 | 0.00 | 0.00 | 0.00 | 87 | 1008.8 |
| 20260507103539 | 21 | 354 | 0.0 | 0.0 | 0.00 | 0.00 | 0.00 | 86 | 1008.8 |
| 20260507103108 | 21 | 354 | 0.0 | 0.0 | 0.00 | 0.00 | 0.00 | 86 | 1008.8 |
| 20260507102535 | 21 | 354 | 0.0 | 0.0 | 0.00 | 0.00 | 0.00 | 85 | 1008.8 |
| 20260507102040 | 21 | 354 | 0.0 | 0.0 | 0.00 | 0.00 | 0.00 | 84 | 1008.7 |
| 20260507101605 | 21 | 354 | 0.0 | 0.0 | 0.00 | 0.00 | 0.00 | 83 | 1008.7 |
| 20260507101112 | 21 | 354 | 0.0 | 0.0 | 0.00 | 0.00 | 0.00 | 82 | 1008.7 |
| 20260507100536 | 21 | 354 | 1.6 | 0.0 | 0.00 | 0.00 | 0.00 | 81 | 1008.7 |
| 20260507100044 | 21 | 358 | 3.2 | 0.0 | 0.00 | 0.00 | 0.00 | 81 | 1008.7 |
| 20260507095552 | 22 | 303 | 4.8 | 0.0 | 0.00 | 0.00 | 0.00 | 80 | 1008.7 |
| 20260507095036 | 22 | 314 | 4.8 | 0.0 | 0.00 | 0.00 | 0.00 | 79 | 1008.7 |
| 20260507094605 | 22 | 307 | 4.8 | 0.0 | 0.00 | 0.00 | 0.00 | 77 | 1008.7 |
| 20260507094033 | 22 | 312 | 4.8 | 0.0 | 0.00 | 0.00 | 0.00 | 76 | 1008.7 |
| 20260507093533 | 22 | 309 | 4.8 | 0.0 | 0.00 | 0.00 | 0.00 | 76 | 1008.6 |
| 20260507093040 | 22 | 317 | 4.8 | 0.0 | 0.00 | 0.00 | 0.00 | 76 | 1008.6 |
| 20260507092548 | 22 | 314 | 6.4 | 0.0 | 0.00 | 0.00 | 0.00 | 76 | 1008.6 |
| 20260507092032 | 22 | 310 | 6.4 | 0.0 | 0.00 | 0.00 | 0.00 | 76 | 1008.4 |
| 20260507091540 | 22 | 317 | 8.0 | 0.0 | 0.00 | 0.00 | 0.00 | 76 | 1008.4 |
| 20260507091030 | 22 | 314 | 6.4 | 0.0 | 0.00 | 0.00 | 0.00 | 74 | 1008.4 |
| 20260507090533 | 22 | 323 | 4.8 | 0.0 | 0.00 | 0.00 | 0.00 | 74 | 1008.2 |
| 20260507090036 | 22 | 327 | 4.8 | 0.0 | 0.00 | 0.00 | 0.00 | 74 | 1008.2 |
| 20260507085543 | 22 | 338 | 4.8 | 0.0 | 0.00 | 0.00 | 0.00 | 75 | 1008.2 |
| 20260507085029 | 22 | 307 | 4.8 | 0.0 | 0.00 | 0.00 | 0.00 | 74 | 1008.2 |
| 20260507084535 | 22 | 330 | 4.8 | 0.0 | 0.00 | 0.00 | 0.00 | 73 | 1008.2 |
| 20260507084043 | 22 | 333 | 6.4 | 0.0 | 0.00 | 0.00 | 0.00 | 73 | 1008.2 |
| 20260507083528 | 22 | 331 | 6.4 | 0.0 | 0.00 | 0.00 | 0.00 | 73 | 1008.2 |
| 20260507083035 | 22 | 304 | 6.4 | 0.0 | 0.00 | 0.00 | 0.00 | 73 | 1008.2 |
| 20260507082543 | 22 | 339 | 8.0 | 0.0 | 0.00 | 0.00 | 0.00 | 73 | 1008.2 |
| 20260507082044 | 22 | 360 | 11.3 | 0.0 | 0.00 | 0.00 | 0.00 | 73 | 1008.2 |
| 20260507081531 | 23 | 299 | 9.7 | 0.0 | 0.00 | 0.00 | 0.00 | 73 | 1008.2 |
| 20260507081039 | 23 | 326 | 8.0 | 0.0 | 0.00 | 0.00 | 0.00 | 72 | 1008.2 |
| 20260507080543 | 23 | 354 | 8.0 | 0.0 | 0.00 | 0.00 | 0.00 | 70 | 1008.2 |
| 20260507080031 | 23 | 318 | 9.7 | 0.0 | 0.00 | 0.00 | 0.00 | 72 | 1008.2 |
| 20260507075559 | 22 | 360 | 9.7 | 0.0 | 0.00 | 0.00 | 0.00 | 72 | 1008.2 |
| 20260507075042 | 23 | 340 | 11.3 | 0.0 | 0.00 | 0.00 | 0.00 | 72 | 1008.2 |
| 20260507074529 | 23 | 352 | 11.3 | 0.0 | 0.00 | 0.00 | 0.00 | 71 | 1008.2 |
| 20260507074032 | 23 | 328 | 11.3 | 0.0 | 0.00 | 0.00 | 0.00 | 70 | 1008.2 |
| 20260507073537 | 23 | 315 | 9.7 | 0.0 | 0.00 | 0.00 | 0.00 | 69 | 1008.2 |
| 20260507073045 | 24 | 296 | 6.4 | 0.0 | 0.00 | 0.00 | 0.00 | 68 | 1008.2 |
| 20260507072553 | 24 | 314 | 4.8 | 0.0 | 0.00 | 0.00 | 0.00 | 67 | 1008.2 |
| 20260507072035 | 24 | 351 | 1.6 | 0.0 | 0.00 | 0.00 | 0.00 | 66 | 1008.2 |